User: anonymous   Login
Location: Andrea Ville Subdivision
(14.3485°N, 120.9580°E)
Time: 11:06:07
(UTC+00:00)
Language:

SL-8 Rocket - Orbit

View from above orbital plane
View from above orbital plane
View from above satellite
View from above satellite

Ground track
Ground track

The orbit is defined by the following mean orbital elements,

1 21088U          26071.04387542 +.00000000 +00000-0 +63491-4 0 00008
2 21088  82.9465 168.2958 0022941  31.9006 140.9010 13.77494607    04
Epoch (UTC): 12 March 2026 01:03:10
Eccentricity: 0.0022941
inclination: 82.9465°
perigee height: 956 km
apogee height: 990 km
right ascension of ascending node: 168.2958°
argument of perigee: 31.9006°
revolutions per day: 13.77494607
mean anomaly at epoch: 140.9010°

The dashed part of the orbit path shows where the satellite is in the earth's shadow,  

DLR